Home   Weather   Bairnsdale   Past weeks

Flag for Australia Past Weather in Bairnsdale, Victoria, Australia — Yesterday and Last 2 Weeks

Now
65 °F

Mild.


Feels Like: 65 °F
Forecast: 52 / 74 °F
Wind: 16 mph from Southwest

Location: Bairnsdale Airport

Current Time: Jan 18, 2017 at 10:34:42 am

Latest Report: Jan 18, 2017 at 10:00 am


Visibility: N/A

Pressure: 29.88 "Hg

Humidity: 63%

Dew Point: 53 °F

Location of BairnsdaleLocation

Past Weather in Bairnsdale — Graph

°F

Bairnsdale Temperature Yesterday

Maximum temperature yesterday: 100 °F (at 12:00 pm)
Minimum temperature yesterday: 56 °F (at 6:00 am)
Average temperature yesterday: 77 °F

High & Low Weather Summary for the Past Weeks

 TemperatureHumidityPressure
High100 °F (Jan 17, 12:00 pm)98% (Jan 6, 4:00 am)30.17 "Hg (Jan 6, 4:00 am)
Low48 °F (Jan 16, 6:00 am)14% (Jan 17, 12:00 pm)29.41 "Hg (Jan 13, 1:00 pm)
Average68 °F68%29.87 "Hg
* Reported Jan 3 9:00 am — Jan 18 9:00 am, Bairnsdale, Weather by CustomWeather, © 2017

Note: Actual official high and low records may vary slightly from our data, if they occured in-between our weather recording intervals... More about our weather records

Advertising

Bairnsdale Weather History for the Previous 24 Hours

Scroll right to see more
 ConditionsComfort  
Time TempWeatherWind HumidityBarometerVisibility
9:00 am
Wed, Jan 18
64 °FOvercast.20 mph71%29.85 "HgN/A
7:00 am69 °FMild.13 mph57%29.76 "HgN/A
6:00 am69 °FOvercast.9 mph56%29.67 "HgN/A
4:00 am68 °FMild.9 mph58%29.75 "HgN/A
3:00 am64 °FPassing clouds.6 mph71%29.75 "HgN/A
1:00 am72 °FMild.10 mph61%29.78 "HgN/A
12:00 am72 °FMild.10 mph55%29.76 "HgN/A
10:00 pm
Tue, Jan 17
78 °FPleasantly warm.7 mph38%29.72 "HgN/A
9:00 pm80 °FPleasantly warm.9 mph33%29.71 "HgN/A
7:00 pm86 °FPleasantly warm.13 mph26%29.71 "HgN/A
6:00 pm87 °FPleasantly warm.10 mph28%29.71 "HgN/A
4:00 pm91 °FHot.18 mph24%29.72 "HgN/A
3:00 pm90 °FHot.17 mph28%29.73 "HgN/A
1:00 pm93 °FExtremely hot.15 mph26%29.72 "HgN/A
12:00 pm100 °FExtremely hot.9 mph14%29.73 "HgN/A
10:00 am94 °FExtremely hot.14 mph17%29.78 "HgN/A
Weather by CustomWeather, © 2017

See weather overviewHow to use our weather pages